[[{"header":{"parameterUnit":"m.s-1","parameterCategory":2,"la1":30.2992,"la2":30.254,"lo1":-89.0895,"lo2":-89.0443,"dy":0.0025,"dx":0.0025,"nx":19,"ny":19,"refTime":"2026-05-16T03:00:00:Z","depth":"0","parameterNumber":2,"parameterNumberName":"U-component_of_CURRENTS"},"data":[0,0,0,0.3866,0.3868,0.3895,0.3895,0.4007,0.4008,0,0,0,0,0,0,0,0,0,0,0,0.3859,0.386,0.3866,0.3868,0.3895,0.3895,0.4007,0.4008,0,0,0,0,0,0,0,0,0,0,0,0.3859,0.386,0.3861,0.3868,0.3895,0.3895,0.4006,0.3961,0,0,0,0,0,0,0,0,0,0,0.3923,0.3893,0.3859,0.3861,0.3868,0.3895,0.3894,0.3958,0.3964,0.4024,0,0.4047,0,0.4044,0.402,0.402,0,0,0,0.3845,0.3888,0.3921,0.3861,0.3869,0.3895,0.3876,0.3961,0.3968,0.4033,0.4048,0.4052,0.4045,0.4021,0.4022,0.4281,0.4282,0,0,0.3844,0.3837,0.3916,0.3926,0.3903,0.3876,0.3877,0.3964,0.397,0.4048,0.4054,0.4047,0.4022,0.4023,0.4279,0.4281,0,0,0,0.3855,0.3836,0.3864,0.3922,0.3928,0.3877,0.3879,0.3965,0.3983,0.4055,0.4049,0.4023,0.4025,0.4278,0.428,0.4359,0,0,0,0.3853,0.3845,0.3864,0.3856,0.3927,0.3932,0.3879,0.3976,0.3986,0.4048,0.4023,0.4027,0.4276,0.4279,0.4353,0.4395,0,0,0,0.3853,0.3844,0.386,0.3857,0.3881,0.3931,0.395,0.3977,0.3984,0.4021,0.4027,0.4275,0.4278,0.4348,0.4386,0.4545,0,0,0,0.3825,0.386,0.386,0.3912,0.3881,0.3982,0.3948,0.402,0.4062,0.4024,0.4276,0.428,0.4346,0.4381,0.4538,0.4439,0.4463,0,0,0.3854,0.3863,0.3899,0.3901,0.3994,0.3975,0.4093,0.4128,0.4139,0.4245,0.425,0.4355,0.4386,0.4544,0.4654,0.4671,0,0,0,0.39,0.3914,0.395,0.3999,0.4077,0.4145,0.4178,0.4228,0.4324,0.4184,0.4409,0.4427,0.4524,0.4451,0.4466,0.4179,0.4297,0.4296,0.4296,0.3886,0.394,0.4004,0.4078,0.4158,0.428,0.4366,0.4444,0.4433,0.4509,0.4531,0.4758,0.4681,0.4691,0.4397,0.4573,0.4573,0.4573,0.4574,0.391,0.3945,0.4029,0.4099,0.4221,0.4329,0.4532,0.4574,0.4768,0.468,0.4771,0.4585,0.4712,0.4392,0.4579,0.4578,0.4578,0.4577,0.4577,0.388,0.3907,0.3948,0.4069,0.421,0.4368,0.4594,0.4734,0.4846,0.4948,0.4919,0.4915,0.4603,0.5013,0.5014,0.5015,0.5015,0.5016,0.5017,0.383,0.388,0.3937,0.4054,0.4156,0.4352,0.4655,0.4822,0.5003,0.503,0.5029,0.4647,0.4893,0.4841,0.5031,0.5028,0.5026,0.5025,0.5024,0.3793,0.3823,0.3922,0.4009,0.4234,0.4343,0.4664,0.492,0.5118,0.5176,0.4767,0.5092,0.5073,0.5058,0.5011,0.5235,0.5235,0.5235,0.5235,0.3766,0.3789,0.3928,0.4068,0.4241,0.4364,0.4491,0.4672,0.4743,0.4653,0.4693,0.4485,0.4489,0.4423,0.4422,0.4358,0.4412,0.441,0.4409,0.3754,0.3822,0.3902,0.4043,0.4226,0.4317,0.4239,0.4109,0.4185,0.4348,0.4322,0.4357,0.4019,0.4049,0.3914,0.3935,0.382,0,0]},{"header":{"parameterUnit":"m.s-1","parameterCategory":2,"la1":30.2992,"la2":30.254,"lo1":-89.0895,"lo2":-89.0443,"dy":0.0025,"dx":0.0025,"nx":19,"ny":19,"refTime":"2026-05-16T03:00:00:Z","depth":"0","parameterNumber":3,"parameterNumberName":"V-component_of_CURRENTS"},"data":[0,0,0,0.0385,0.0385,0.0385,0.0385,0.041,0.041,0,0,0,0,0,0,0,0,0,0,0,0.0392,0.0392,0.0385,0.0385,0.0385,0.0384,0.041,0.041,0,0,0,0,0,0,0,0,0,0,0,0.0391,0.0392,0.0392,0.0385,0.0385,0.0384,0.041,0.0402,0,0,0,0,0,0,0,0,0,0,0.0399,0.0392,0.0392,0.0392,0.0385,0.0385,0.0384,0.0402,0.0403,0.042,0,0.0429,0,0.0422,0.0413,0.0413,0,0,0,0.0379,0.0391,0.0403,0.0392,0.0386,0.0385,0.0383,0.0402,0.0404,0.0422,0.0429,0.043,0.0422,0.0414,0.0414,0.0564,0.0566,0,0,0.0379,0.0378,0.0402,0.0404,0.0398,0.0383,0.0383,0.0403,0.0403,0.0429,0.043,0.0422,0.0414,0.0414,0.0563,0.0565,0,0,0,0.0384,0.0378,0.0388,0.0404,0.0402,0.0383,0.0383,0.0402,0.041,0.043,0.0423,0.0414,0.0415,0.0562,0.0564,0.0718,0,0,0,0.0383,0.0381,0.0389,0.0386,0.0402,0.0395,0.0382,0.0408,0.041,0.0423,0.0414,0.0415,0.056,0.0563,0.0711,0.0795,0,0,0,0.0389,0.0381,0.0388,0.0386,0.0389,0.0395,0.0402,0.0408,0.0406,0.0414,0.0415,0.0559,0.0562,0.0704,0.0783,0.0929,0,0,0,0.0378,0.042,0.0388,0.0443,0.0389,0.0467,0.0402,0.0443,0.046,0.0414,0.056,0.0564,0.0702,0.0775,0.0921,0.1036,0.1083,0,0,0.0434,0.0427,0.0466,0.0437,0.0537,0.0466,0.058,0.0559,0.0514,0.0551,0.0554,0.0713,0.0782,0.0927,0.1218,0.126,0,0,0,0.0486,0.052,0.0545,0.0589,0.0618,0.0677,0.0646,0.0655,0.0695,0.0538,0.0734,0.0774,0.086,0.0912,0.0946,0.0694,0.0578,0.0578,0.0578,0.0559,0.0593,0.0684,0.0738,0.0788,0.0829,0.0885,0.0894,0.0818,0.087,0.0914,0.1152,0.1209,0.1236,0.0974,0.0922,0.0923,0.0923,0.0924,0.0683,0.0752,0.0801,0.0899,0.096,0.1048,0.1126,0.1107,0.1219,0.1092,0.1169,0.1091,0.1283,0.0989,0.0934,0.0932,0.0931,0.093,0.0929,0.0748,0.0792,0.0843,0.0988,0.1117,0.1187,0.1391,0.1393,0.1381,0.146,0.1519,0.1516,0.1247,0.1502,0.1503,0.1504,0.1505,0.1506,0.1507,0.0792,0.0854,0.0955,0.1089,0.1192,0.1367,0.1547,0.1671,0.1769,0.1726,0.1726,0.1316,0.1329,0.1293,0.1523,0.152,0.1518,0.1516,0.1515,0.0897,0.0902,0.1059,0.1161,0.1416,0.1682,0.1824,0.2114,0.2186,0.2263,0.1726,0.1871,0.1842,0.1813,0.1789,0.2134,0.2134,0.2134,0.2134,0.0948,0.0968,0.1173,0.1355,0.1608,0.1838,0.2293,0.2485,0.2265,0.2042,0.1833,0.1664,0.165,0.1594,0.157,0.1534,0.1806,0.1805,0.1804,0.1025,0.1075,0.1235,0.1411,0.1696,0.2061,0.2513,0.2749,0.2237,0.1754,0.1463,0.1477,0.1178,0.1176,0.1038,0.1025,0.0947,0,0]}],[{"header":{"parameterUnit":"m.s-1","parameterCategory":2,"la1":30.2992,"la2":30.254,"lo1":-89.0895,"lo2":-89.0443,"dy":0.0025,"dx":0.0025,"nx":19,"ny":19,"refTime":"2026-05-16T03:00:00:Z","depth":"2","parameterNumber":2,"parameterNumberName":"U-component_of_CURRENTS"},"data":[0,0,0,0.305,0.3052,0.3133,0.3134,0.3236,0.3236,0,0,0,0,0,0,0,0,0,0,0,0.3039,0.304,0.305,0.3052,0.3133,0.3134,0.3235,0.3236,0,0,0,0,0,0,0,0,0,0,0,0.3038,0.3039,0.304,0.3052,0.3133,0.3134,0.3235,0.3177,0,0,0,0,0,0,0,0,0,0,0.3099,0.3086,0.3039,0.304,0.3052,0.3133,0.3134,0.3174,0.318,0.3195,0,0.3217,0,0.3218,0.3242,0.3243,0,0,0,0.3061,0.308,0.3098,0.3041,0.3053,0.3133,0.3099,0.3178,0.3185,0.3204,0.3219,0.3222,0.322,0.3243,0.3243,0.3434,0.3436,0,0,0.3057,0.3057,0.3093,0.3103,0.3087,0.3096,0.3101,0.3182,0.3197,0.3219,0.3224,0.3222,0.3244,0.3244,0.3433,0.3435,0,0,0,0.3037,0.3054,0.3069,0.3099,0.3108,0.3098,0.3104,0.3194,0.3199,0.3225,0.3223,0.3244,0.3245,0.3431,0.3433,0.3512,0,0,0,0.3035,0.3041,0.3068,0.3069,0.3106,0.3151,0.3115,0.3194,0.3202,0.3222,0.3244,0.3246,0.343,0.3432,0.3506,0.3509,0,0,0,0.3033,0.3041,0.3053,0.3068,0.3097,0.315,0.316,0.3196,0.32,0.3243,0.3246,0.3429,0.3432,0.3501,0.3503,0.3632,0,0,0,0.3025,0.3041,0.3054,0.3094,0.3096,0.3175,0.316,0.3223,0.3266,0.3244,0.343,0.3433,0.35,0.3498,0.3626,0.3444,0.3456,0,0,0.3033,0.3043,0.307,0.3082,0.3143,0.3164,0.3265,0.3307,0.3325,0.34,0.3405,0.3508,0.3502,0.363,0.3641,0.3645,0,0,0,0.3065,0.3079,0.3106,0.315,0.3208,0.3278,0.3328,0.3379,0.3485,0.3364,0.3556,0.355,0.3628,0.3508,0.3514,0.3449,0.3449,0.3449,0.3448,0.3065,0.3101,0.3149,0.3205,0.3271,0.3372,0.3457,0.3543,0.3554,0.3636,0.365,0.3844,0.3719,0.372,0.3708,0.3709,0.3709,0.3709,0.3709,0.308,0.3094,0.3177,0.323,0.3322,0.3428,0.3583,0.3636,0.3823,0.3776,0.3851,0.364,0.373,0.3717,0.3715,0.3714,0.3713,0.3713,0.3712,0.3065,0.3063,0.3125,0.3211,0.3333,0.346,0.3615,0.3781,0.3878,0.3968,0.3895,0.389,0.3876,0.4047,0.4048,0.4049,0.4049,0.405,0.405,0.2993,0.3047,0.3069,0.319,0.3246,0.341,0.3678,0.3795,0.3938,0.3961,0.396,0.3958,0.3947,0.3898,0.406,0.4058,0.4057,0.4056,0.4055,0.2913,0.2953,0.2969,0.3008,0.3147,0.3205,0.3508,0.3708,0.3902,0.3899,0.3971,0.397,0.3931,0.3923,0.3874,0.4021,0.4021,0.4021,0.4021,0.2844,0.2872,0.2856,0.2877,0.2944,0.3093,0.3116,0.3257,0.3533,0.361,0.3627,0.3468,0.3479,0.3406,0.341,0.3347,0.3356,0.3355,0.3354,0.2787,0.2796,0.276,0.2806,0.2827,0.2923,0.2815,0.273,0.2968,0.3324,0.3473,0.3983,0.379,0.3792,0.3708,0.3703,0.3614,0,0]},{"header":{"parameterUnit":"m.s-1","parameterCategory":2,"la1":30.2992,"la2":30.254,"lo1":-89.0895,"lo2":-89.0443,"dy":0.0025,"dx":0.0025,"nx":19,"ny":19,"refTime":"2026-05-16T03:00:00:Z","depth":"2","parameterNumber":3,"parameterNumberName":"V-component_of_CURRENTS"},"data":[0,0,0,0.0143,0.0143,0.0138,0.0138,0.0127,0.0127,0,0,0,0,0,0,0,0,0,0,0,0.0148,0.0148,0.0143,0.0143,0.0138,0.0138,0.0127,0.0127,0,0,0,0,0,0,0,0,0,0,0,0.0148,0.0148,0.0148,0.0143,0.0138,0.0138,0.0127,0.0132,0,0,0,0,0,0,0,0,0,0,0.0137,0.0141,0.0148,0.0148,0.0143,0.0138,0.0138,0.0132,0.0131,0.0128,0,0.013,0,0.0127,0.0126,0.0126,0,0,0,0.0142,0.0142,0.0141,0.0148,0.0143,0.0138,0.014,0.0131,0.0131,0.0127,0.013,0.013,0.0127,0.0126,0.0126,0.0186,0.0187,0,0,0.0142,0.0145,0.0142,0.0141,0.0146,0.014,0.014,0.0131,0.0131,0.013,0.0129,0.0126,0.0126,0.0125,0.0185,0.0186,0,0,0,0.0144,0.0145,0.0145,0.0142,0.014,0.014,0.014,0.0132,0.0132,0.0129,0.0126,0.0126,0.0125,0.0185,0.0186,0.0292,0,0,0,0.0144,0.0146,0.0145,0.0146,0.0141,0.0136,0.0141,0.0133,0.0132,0.0126,0.0126,0.0125,0.0184,0.0185,0.0287,0.0365,0,0,0,0.0148,0.0146,0.0147,0.0147,0.0144,0.0136,0.0136,0.0133,0.013,0.0126,0.0125,0.0183,0.0185,0.0283,0.0357,0.0448,0,0,0,0.0148,0.0175,0.0147,0.0185,0.0145,0.0188,0.0136,0.0155,0.0158,0.0125,0.0184,0.0186,0.0282,0.0352,0.0442,0.0519,0.0551,0,0,0.0189,0.018,0.0207,0.0183,0.0246,0.0188,0.0256,0.0225,0.0183,0.0184,0.0185,0.0289,0.0356,0.0446,0.0622,0.0651,0,0,0,0.0226,0.025,0.0263,0.0292,0.03,0.0329,0.0292,0.0281,0.0285,0.0192,0.0296,0.0336,0.0389,0.0423,0.0446,0.0194,0.0194,0.0194,0.0194,0.0289,0.0309,0.0374,0.0404,0.0427,0.0427,0.045,0.043,0.0363,0.0385,0.0426,0.0576,0.0613,0.0631,0.0412,0.0413,0.0413,0.0413,0.0414,0.039,0.044,0.047,0.0538,0.0559,0.061,0.0615,0.0583,0.0629,0.0536,0.0582,0.0538,0.0664,0.0422,0.042,0.0419,0.0418,0.0418,0.0417,0.0446,0.0476,0.0518,0.0623,0.0714,0.0735,0.0873,0.0833,0.0758,0.0802,0.0832,0.083,0.0659,0.0821,0.0822,0.0823,0.0823,0.0824,0.0824,0.0483,0.0531,0.0619,0.0721,0.0806,0.094,0.1039,0.1092,0.1075,0.0988,0.0987,0.0714,0.0701,0.0683,0.0836,0.0834,0.0832,0.0831,0.083,0.0561,0.0572,0.0711,0.0799,0.1029,0.127,0.1325,0.1456,0.144,0.1434,0.1088,0.1078,0.106,0.104,0.103,0.1264,0.1264,0.1264,0.1264,0.0601,0.062,0.0817,0.0993,0.1233,0.1432,0.1731,0.1701,0.1527,0.135,0.1346,0.1249,0.1231,0.1214,0.119,0.1179,0.1453,0.1453,0.1453,0.0662,0.0712,0.0871,0.1057,0.1342,0.166,0.1939,0.1863,0.154,0.1454,0.1313,0.129,0.113,0.1108,0.106,0.103,0.1003,0,0]}],[{"header":{"parameterUnit":"m.s-1","parameterCategory":2,"la1":30.2992,"la2":30.254,"lo1":-89.0895,"lo2":-89.0443,"dy":0.0025,"dx":0.0025,"nx":19,"ny":19,"refTime":"2026-05-16T03:00:00:Z","depth":"4","parameterNumber":2,"parameterNumberName":"U-component_of_CURRENTS"},"data":[0,0,0,0.1872,0.1875,0.204,0.2041,0.2171,0.2172,0,0,0,0,0,0,0,0,0,0,0,0.1821,0.1822,0.1872,0.1876,0.204,0.2041,0.2171,0.2172,0,0,0,0,0,0,0,0,0,0,0,0.1821,0.1822,0.1824,0.1876,0.204,0.2041,0.2171,0.2067,0,0,0,0,0,0,0,0,0,0,0.1918,0.1894,0.1822,0.1824,0.1877,0.204,0.2041,0.2063,0.2074,0.2072,0,0.2106,0,0.2136,0.2178,0.2179,0,0,0,0.188,0.1886,0.1915,0.1824,0.1878,0.204,0.1967,0.207,0.2082,0.2085,0.2108,0.2114,0.2138,0.2179,0.2179,0.2324,0.2325,0,0,0.1871,0.1863,0.1908,0.1923,0.1932,0.1962,0.1972,0.2078,0.2101,0.2109,0.2117,0.214,0.2179,0.218,0.2323,0.2324,0,0,0,0.1842,0.1857,0.1886,0.1917,0.1951,0.1967,0.1979,0.2097,0.2103,0.2119,0.2142,0.218,0.2181,0.2322,0.2324,0.2369,0,0,0,0.1837,0.1839,0.1882,0.1881,0.1949,0.204,0.1995,0.2096,0.2109,0.2141,0.218,0.2182,0.2321,0.2323,0.2366,0.2367,0,0,0,0.1812,0.1837,0.1856,0.188,0.1947,0.2039,0.2053,0.21,0.2122,0.2179,0.2182,0.2321,0.2323,0.2363,0.2363,0.2433,0,0,0,0.1797,0.1825,0.1856,0.1897,0.1945,0.2031,0.2053,0.2142,0.2195,0.2181,0.2321,0.2323,0.2362,0.236,0.243,0.2123,0,0,0,0.1811,0.1827,0.1846,0.1877,0.1936,0.2008,0.2101,0.2187,0.2223,0.2279,0.2284,0.2367,0.2362,0.2432,0.2248,0,0,0,0,0.1835,0.1851,0.1876,0.1924,0.199,0.2085,0.2172,0.2228,0.2338,0.2264,0.2396,0.2392,0.2435,0.2248,0.2334,0.2333,0.2333,0.2333,0.2333,0.1828,0.1854,0.1891,0.1945,0.2016,0.215,0.2238,0.2335,0.2363,0.2438,0.2452,0.2563,0.2369,0.2488,0.2488,0.2488,0.2488,0.2489,0.2489,0.1813,0.1808,0.1891,0.1939,0.2045,0.2149,0.2317,0.2388,0.2532,0.2524,0.2565,0.2336,0.2494,0.2493,0.2492,0.2491,0.2491,0.2491,0.249,0.1766,0.176,0.1826,0.1902,0.2023,0.2168,0.228,0.2434,0.2569,0.2628,0.2467,0.2607,0.2578,0.2678,0.2678,0.2679,0.2679,0.2679,0.2679,0.1657,0.1718,0.1735,0.1855,0.1915,0.2047,0.228,0.2366,0.2542,0.2484,0.2663,0.2627,0.2621,0.2591,0.2685,0.2684,0.2683,0.2683,0.2682,0.1545,0.1583,0.1588,0.1634,0.1738,0.1822,0.2083,0.2236,0.2327,0.2357,0.2411,0.2423,0.238,0.2381,0.2339,0.2363,0.2359,0.2355,0,0.1442,0.1466,0.1417,0.1417,0.1451,0.1644,0.1712,0.1885,0.2093,0.203,0.2307,0.2358,0.2368,0.2308,0.2303,0.2247,0,0,0,0.1352,0.1342,0.1268,0.127,0.1286,0.146,0.171,0.1724,0.2076,0.2094,0.2265,0.2289,0.2469,0.27,0.2664,0.2657,0.2606,0,0]},{"header":{"parameterUnit":"m.s-1","parameterCategory":2,"la1":30.2992,"la2":30.254,"lo1":-89.0895,"lo2":-89.0443,"dy":0.0025,"dx":0.0025,"nx":19,"ny":19,"refTime":"2026-05-16T03:00:00:Z","depth":"4","parameterNumber":3,"parameterNumberName":"V-component_of_CURRENTS"},"data":[0,0,0,0.0089,0.0089,0.0085,0.0085,0.0072,0.0071,0,0,0,0,0,0,0,0,0,0,0,0.0092,0.0092,0.0089,0.0089,0.0085,0.0085,0.0072,0.0071,0,0,0,0,0,0,0,0,0,0,0,0.0092,0.0092,0.0092,0.0089,0.0085,0.0085,0.0072,0.0076,0,0,0,0,0,0,0,0,0,0,0.0081,0.0085,0.0092,0.0092,0.0089,0.0085,0.0085,0.0077,0.0076,0.0071,0,0.0073,0,0.0071,0.007,0.007,0,0,0,0.0088,0.0086,0.0085,0.0092,0.0089,0.0085,0.0086,0.0076,0.0076,0.007,0.0073,0.0072,0.0071,0.007,0.007,0.0081,0.0081,0,0,0.0088,0.009,0.0085,0.0085,0.009,0.0086,0.0086,0.0076,0.0076,0.0073,0.0072,0.0071,0.007,0.007,0.0081,0.0081,0,0,0,0.0089,0.009,0.009,0.0085,0.0085,0.0086,0.0086,0.0077,0.0077,0.0072,0.007,0.007,0.007,0.0081,0.0081,0.0154,0,0,0,0.0089,0.0091,0.009,0.0091,0.0085,0.0081,0.0087,0.0077,0.0076,0.007,0.007,0.007,0.008,0.0081,0.0151,0.0214,0,0,0,0.0092,0.0091,0.0092,0.0091,0.009,0.0082,0.0081,0.0077,0.0075,0.007,0.007,0.008,0.0081,0.0149,0.0209,0.0247,0,0,0,0.0092,0.0109,0.0092,0.0117,0.009,0.0114,0.0081,0.0092,0.0093,0.007,0.008,0.0081,0.0148,0.0206,0.0244,0.028,0,0,0,0.0118,0.0112,0.0131,0.0116,0.0155,0.0114,0.0152,0.0132,0.0097,0.0082,0.0083,0.0152,0.0209,0.0247,0.0311,0,0,0,0,0.0143,0.016,0.0167,0.0187,0.0188,0.0207,0.0175,0.0156,0.0144,0.0099,0.0143,0.0177,0.0198,0.0208,0.0084,0.0084,0.0084,0.0084,0.0083,0.0183,0.0197,0.0241,0.0261,0.0275,0.0267,0.0273,0.0241,0.019,0.0189,0.0228,0.03,0.0312,0.0201,0.0201,0.0202,0.0202,0.0202,0.0202,0.0248,0.0283,0.0308,0.0355,0.037,0.04,0.0381,0.0348,0.0341,0.0282,0.0297,0.0274,0.0209,0.0208,0.0207,0.0206,0.0205,0.0205,0.0205,0.0282,0.0304,0.0337,0.042,0.0494,0.0507,0.058,0.0528,0.0439,0.0453,0.0448,0.0358,0.0362,0.0453,0.0453,0.0453,0.0454,0.0454,0.0454,0.0301,0.0339,0.0415,0.0502,0.0584,0.0681,0.0706,0.0696,0.0609,0.0561,0.0484,0.0385,0.0377,0.0376,0.0461,0.046,0.0459,0.0459,0.0458,0.035,0.0368,0.0487,0.0574,0.0767,0.0844,0.0869,0.0824,0.0808,0.0751,0.0603,0.0594,0.0576,0.0564,0.0568,0.0714,0.0715,0.0716,0,0.0382,0.0398,0.0567,0.0727,0.0888,0.0953,0.098,0.0949,0.0818,0.0805,0.0783,0.0617,0.0608,0.0588,0.0578,0.0585,0,0,0,0.043,0.0475,0.0604,0.0757,0.0951,0.0992,0.0992,0.0962,0.0843,0.0825,0.0736,0.0731,0.0605,0.0482,0.0434,0.0424,0.042,0,0]}]]